Main page
METAR-TAF:

METAR-TAF

Airports :

Cascais, Portugal

Cascais Municipal Aerodrome

latitude: 38-43-32N, longitude: 009-21-19W, elevation: 99 m

Current weather observation

The report was made 24 minutes ago, at 09:30 UTC
Wind 15 kt from the North
Temperature 16°C
Humidity 59%
Pressure 1028 hPa
Visibility 10 km or more
no clouds below 1500 m and no cumulonimbus

METAR: LPCS 220930Z 01015KT CAVOK 16/08 Q1028

Time: 10:54 (09:54 UTC)


TAF: missing

Weather observations and forecasts of more than 4000 airports (METAR and TAF reports).

The available stations are represented by yellow and red dots on the map.

Hover mouse over dot to see the name of the station.

Then click to see weather observations and forecasts.

To change the map : click on the green buttons with a black cross to zoom in, on the green button with a dash to zoom out, or on the green arrows for adjacent maps.


METAR-TAF: